Lid_Strength_Index
13 15 16 14 13 12 13 14 14 12 10 11 13 12 11 10 9 9 9 8 7 6 5 6 5 5 4 5 5 5 4 2 2 2 3 3 2 2 2 1 1 1 1 1
14 16 13 12 12 13 14 15 15 13 11 11 12 13 11 10 9 8 8 8 7 7 7 6 5 5 5 5 5 5 4 2 2 2 2 2 2 2 2 2 1 1 1 1
14 13 11 12 13 14 15 15 15 14 12 11 12 13 12 10 10 9 8 8 7 7 7 6 5 6 6 6 5 4 4 2 2 2 3 4 3 3 4 3 3 2 1 2
12 10 11 12 13 13 16 12 12 12 14 17 13 18 13 11 11 10 9 9 8 8 7 6 6 6 6 6 5 4 2 2 2 2 3 3 4 4 4 3 3 3 3 2
11 11 12 13 13 11 14 12 13 13 14 16 15 17 15 13 13 12 10 9 9 8 8 8 7 6 6 6 4 3 2 2 2 3 3 3 4 5 4 4 4 4 3 2
9 8 9 10 9 10 10 12 13 14 15 19 16 16 16 14 13 12 10 10 9 9 8 8 7 5 4 3 3 2 3 4 3 3 4 4 5 4 5 5 4 4 3 3
11 11 8 8 11 10 12 15 19 20 20 20 15 16 15 13 12 11 11 10 9 8 8 8 8 5 4 4 3 3 3 5 5 5 5 5 5 5 4 4 5 5 3 3
16 16 10 8 11 13 14 15 19 21 21 20 14 18 16 11 10 9 9 9 9 9 10 7 6 5 4 4 4 4 5 6 5 5 6 5 5 5 4 4 3 3 3 3
15 15 9 8 8 9 12 16 13 17 17 20 18 16 13 11 11 10 10 9 10 10 9 6 5 4 4 4 5 5 6 6 6 6 6 5 5 5 4 3 3 3 3 2
11 15 10 9 8 9 12 11 16 18 21 22 19 18 17 13 12 11 10 10 10 8 7 6 5 5 5 6 6 6 6 6 6 5 5 5 4 3 3 3 3 3 2 2
10 13 12 10 12 13 12 14 13 16 18 21 21 19 14 12 11 12 11 8 7 7 6 6 5 4 5 6 5 5 5 5 5 4 4 3 3 3 3 3 3 3 2 2
10 13 16 13 10 9 11 12 13 17 18 19 20 19 12 12 11 11 9 8 8 7 6 5 5 5 5 6 6 6 5 5 4 3 3 3 3 3 3 3 2 2 2 1
11 14 17 15 13 10 13 12 12 13 15 19 21 19 11 12 11 9 11 8 8 7 6 6 5 5 6 6 6 5 4 4 3 3 3 3 3 3 3 2 2 2 2 1
9 13 15 18 15 13 15 13 12 14 17 18 18 17 12 11 12 11 10 8 8 7 6 6 6 5 6 5 5 4 4 3 3 3 2 3 3 3 2 2 2 2 2 2
10 14 14 13 12 12 13 13 13 13 13 17 16 16 12 12 12 11 9 7 8 7 7 6 6 5 6 5 4 4 3 3 3 3 2 3 3 2 2 2 2 2 1 1
10 14 13 14 12 12 14 12 12 12 13 14 14 15 10 11 11 11 8 8 8 8 7 6 5 5 5 4 4 4 3 3 2 2 3 2 2 3 2 2 2 2 1 1
12 13 14 17 12 13 16 13 12 12 11 13 16 13 10 11 11 10 8 7 8 7 6 6 5 5 4 4 3 4 4 3 3 2 2 2 2 2 2 2 2 2 1 1
12 13 14 17 16 21 13 9 10 11 10 10 11 10 9 9 8 7 7 7 7 6 6 5 5 4 4 4 4 4 4 3 3 3 3 2 2 2 2 2 2 2 1 2
9 11 15 18 18 14 12 11 12 13 13 9 11 10 9 8 8 8 6 6 6 5 5 4 4 4 4 4 4 4 4 3 3 3 3 2 2 2 2 2 3 2 2 2
9 10 13 16 19 20 14 10 8 9 16 9 9 9 9 9 13 10 6 5 5 5 5 5 4 4 4 4 4 4 4 3 3 3 2 2 2 2 2 3 3 2 2 2
14 14 16 16 17 15 10 9 9 17 16 9 8 8 9 10 9 7 6 5 5 5 5 4 4 4 4 5 5 4 4 3 2 2 2 2 2 2 2 2 2 2 2 2
15 16 16 15 17 19 10 11 13 10 8 8 8 7 9 9 7 6 6 6 5 5 5 4 4 5 5 5 4 5 4 3 2 2 2 2 2 2 2 2 2 2 2 3
15 13 14 14 14 11 11 11 9 8 8 7 7 7 8 8 8 7 6 5 5 4 4 4 4 5 5 5 4 5 4 3 2 3 3 3 2 2 2 2 3 3 3 3
11 10 14 13 11 11 9 9 6 6 7 6 6 6 7 9 8 7 6 6 5 4 4 4 5 5 6 5 5 3 4 3 3 3 3 3 2 3 2 2 2 3 3 3
10 9 11 12 10 9 9 7 6 6 6 7 7 7 7 8 8 7 7 6 6 6 4 5 5 5 5 5 5 5 3 2 3 3 3 3 3 2 3 3 3 3 2 3
9 10 12 13 9 9 9 7 6 8 8 6 8 8 8 8 8 7 7 6 6 5 5 5 5 5 5 5 5 5 2 2 3 3 3 3 3 3 3 4 6 12 10 9